This is the latest recevied weather packets stored in our database for station/object PD3EM. If no packets are shown the sender has not sent any weather packets the latest 10 day(s).
| Time | Temp. | Humidity | Pressure | Rain* | Wind** | Luminosity | Snow |
|---|---|---|---|---|---|---|---|
| 1777041349 | 16.11° C | 67% | 1025 hPa | 0 mm | - | 426 W/m² | - |
| 1777040748 | 16.11° C | 66% | 1025.2 hPa | 0 mm | - | 433 W/m² | - |
| 1777040187 | 16.67° C | 63% | 1025.2 hPa | 0 mm | - | 460 W/m² | - |
| 1777037742 | 16.11° C | 64% | 1025.5 hPa | 0 mm | - | 531 W/m² | - |
| 1777035337 | 16.11° C | 64% | 1026 hPa | 0 mm | - | 564 W/m² | - |
| 1777029325 | 15° C | 70% | 1026.5 hPa | 0 mm | - | 600 W/m² | - |
| 1777026920 | 14.44° C | 73% | 1027 hPa | 0 mm | - | 582 W/m² | - |
| 1777024515 | 12.78° C | 76% | 1027.2 hPa | 0 mm | - | 549 W/m² | - |
| 1777022110 | 11.11° C | 80% | 1027.5 hPa | 0 mm | - | 500 W/m² | - |
| 1777020907 | 10.56° C | 82% | 1027.4 hPa | 0 mm | - | 229 W/m² | - |
| 1777019104 | 9.44° C | 85% | 1027.5 hPa | 0 mm | - | 494 W/m² | - |
| 1777017360 | 8.33° C | 88% | 1027.3 hPa | 0 mm | - | 213 W/m² | - |
| 1777016759 | 8.33° C | 88% | 1027.2 hPa | 0 mm | - | 95 W/m² | - |
| 1777016157 | 7.78° C | 89% | 1027.1 hPa | 0 mm | - | 153 W/m² | - |
| 1777013151 | 6.67° C | 93% | 1027.4 hPa | 0 mm | - | 76 W/m² | - |
| 1777011949 | 6.67° C | 94% | 1027.5 hPa | 0 mm | - | 67 W/m² | - |
| 1777008341 | 5.56° C | 95% | 1027.4 hPa | 0 mm | - | 17 W/m² | - |
| 1777007740 | 5° C | 95% | 1027.3 hPa | 0 mm | - | 13 W/m² | - |
| 1777004133 | 4.44° C | 93% | 1027.3 hPa | 0 mm | - | 1 W/m² | - |
| 1777002930 | 5.56° C | 93% | 1027.3 hPa | 0 mm | - | 0 W/m² | - |
| 1777000525 | 6.11° C | 94% | 1027.3 hPa | 0 mm | - | 0 W/m² | - |
| 1776999924 | 6.11° C | 94% | 1027.5 hPa | 0 mm | - | 0 W/m² | - |
| 1776999323 | 6.11° C | 93% | 1027.7 hPa | 0 mm | - | 0 W/m² | - |
| 1776997520 | 5° C | 93% | 1027.7 hPa | 0 mm | - | 0 W/m² | - |
| 1776991547 | 3.89° C | 88% | 1028.3 hPa | 0 mm | - | 0 W/m² | - |
* Rain latest hour (hover to see other rain measurements)
** Current wind speed in m/s (hover to see current wind gust speed)